Temp
63 62 62 62 63 63 63 63 63 63 63 63 63 64 64 64 64 69 58 63 65 66 67 68 68 67 68 60 61 60 53 50 51 51 53 54 52 58 60 55 58 60 59 63 65
62 62 62 62 62 63 62 63 62 62 62 63 63 64 63 63 67 60 65 66 65 65 65 63 61 65 60 57 58 57 55 51 55 55 52 53 52 54 52 54 56 58 63 64 63
61 61 61 61 61 62 62 62 62 62 62 62 63 63 63 65 63 58 66 66 65 66 65 64 62 62 55 58 54 53 49 52 52 52 51 49 50 55 50 48 55 53 57 60 59
61 60 60 60 61 61 61 61 62 62 62 62 63 63 62 68 51 61 65 64 64 66 64 62 60 57 54 51 52 47 50 50 50 51 48 47 52 49 52 53 59 58 58 57 57
60 60 59 59 60 60 61 61 61 61 62 62 62 62 63 60 55 65 63 65 65 63 59 57 57 57 51 51 51 48 48 50 50 49 49 50 46 47 49 57 59 58 56 56 55
60 59 59 59 59 60 60 61 61 61 61 62 62 61 62 54 64 66 64 64 62 61 58 59 56 59 53 50 49 49 47 49 49 49 49 45 47 46 52 57 55 55 55 55 51
59 59 58 59 59 59 60 60 61 61 61 62 61 65 61 54 66 66 64 60 61 59 55 57 58 55 54 47 50 47 43 47 48 48 46 47 43 43 53 55 52 53 55 50 50
59 59 58 59 59 59 59 60 61 60 61 61 61 65 55 62 68 63 64 60 62 61 58 58 59 53 51 51 49 45 45 42 47 46 47 44 41 51 55 52 50 52 53 48 48
59 58 58 59 59 59 59 60 60 61 61 61 61 61 51 59 57 62 63 56 57 58 58 58 55 50 49 45 46 46 43 43 45 47 44 41 40 53 56 54 52 52 51 46 46
58 57 58 59 59 59 60 60 60 60 62 66 64 55 51 51 57 59 61 59 53 53 51 51 51 45 46 43 41 44 42 45 43 46 44 41 41 50 55 54 51 50 49 45 44
58 58 58 58 59 59 59 59 55 52 57 55 55 52 53 57 60 56 58 55 54 50 45 46 40 40 46 46 44 42 42 41 47 49 38 41 43 47 53 53 50 47 45 44 43
57 58 57 58 59 59 62 57 55 55 49 54 53 53 56 58 48 52 58 49 47 44 44 42 39 45 47 43 40 39 38 39 45 42 39 41 40 46 51 46 48 45 44 43 43
57 58 57 58 57 57 59 57 60 60 51 48 53 53 52 54 51 49 53 50 46 44 44 39 43 44 41 38 33 38 35 36 35 39 44 39 42 49 40 42 42 43 44 43 41
56 57 57 57 53 60 55 60 60 60 46 43 44 50 52 54 46 54 56 50 45 41 44 44 42 39 38 36 36 29 39 36 34 33 32 39 27 46 47 38 38 39 40 40 41
56 56 57 56 57 55 55 59 59 57 34 45 44 55 53 49 46 44 52 48 42 43 39 40 38 37 35 38 39 34 36 33 32 31 29 34 26 41 41 37 39 40 42 42 42
56 56 56 56 59 57 59 58 56 43 34 39 44 42 42 46 45 45 46 49 46 41 42 42 42 41 42 38 39 37 29 29 27 29 21 32 27 39 43 38 44 45 44 42 40
55 55 56 60 56 59 59 54 44 37 46 38 39 42 43 41 42 42 39 36 37 32 36 38 38 38 40 34 35 30 28 29 26 22 29 30 23 33 39 37 42 41 43 42 37
55 55 53 58 59 58 55 48 35 48 47 45 43 42 39 43 42 40 40 36 40 39 36 37 32 33 38 34 32 28 29 30 23 29 33 28 23 36 36 33 39 38 38 40 38
53 57 56 56 58 58 51 38 44 50 48 42 41 39 40 41 41 39 40 40 40 39 32 34 33 33 32 32 33 25 23 29 26 21 23 32 33 39 41 34 33 32 34 34 36
55 54 53 55 58 54 46 40 48 50 47 46 44 46 42 40 36 36 41 40 37 38 34 38 31 34 29 33 28 27 31 23 26 18 22 31 30 34 34 35 33 31 31 32 34
53 49 49 55 55 49 37 41 46 51 50 45 47 45 45 41 40 38 41 43 44 37 39 33 31 28 29 25 26 22 25 24 24 28 22 24 34 40 39 40 36 33 33 33 33
52 44 49 54 43 46 39 42 45 45 47 45 44 46 44 44 39 41 40 46 43 35 31 35 33 29 27 24 26 31 30 27 26 23 24 19 25 36 41 40 39 38 34 34 33
44 46 48 48 36 41 44 40 43 42 41 41 41 44 46 40 32 41 41 40 39 35 33 33 30 26 26 22 24 22 25 29 29 25 22 20 30 38 37 36 36 35 37 33 33
42 34 39 42 45 38 39 40 39 45 42 43 41 41 35 34 40 33 37 34 37 37 39 36 29 30 31 32 27 18 23 26 25 23 24 25 30 38 41 37 34 36 36 34 31
38 36 42 30 35 36 39 40 38 37 40 41 37 37 33 29 33 32 35 29 31 34 34 30 24 28 30 32 31 28 26 23 21 23 22 29 32 37 41 42 41 42 41 37 33
34 35 38 38 42 37 36 34 35 38 35 35 33 37 35 31 34 32 31 31 33 30 28 29 25 28 24 29 29 25 29 28 22 25 25 27 27 38 42 43 41 41 40 38 36
43 43 37 36 36 33 36 37 37 40 41 45 41 38 31 34 42 44 43 38 35 29 26 26 24 23 21 25 22 18 23 26 28 27 25 20 28 37 36 37 38 37 36 36 35
MSLP
1019.76 1020.00 1020.12 1020.21 1020.26 1020.29 1020.41 1020.55 1020.70 1020.84 1020.87 1020.98 1020.98 1020.92 1020.92 1020.46 1020.11 1019.59 1020.09 1021.45 1021.31 1021.05 1020.24 1019.59 1019.21 1018.87 1018.48 1018.91 1019.12 1018.86 1017.91 1017.81 1018.28 1018.92 1019.53 1021.03 1021.21 1021.34 1021.71 1021.55 1021.40 1021.56 1021.45 1021.69 1021.55
1020.05 1020.16 1020.26 1020.32 1020.39 1020.41 1020.55 1020.67 1020.85 1021.00 1021.14 1021.22 1021.16 1021.16 1020.91 1020.44 1019.90 1020.36 1021.77 1021.69 1021.56 1021.17 1020.23 1019.69 1019.40 1018.98 1019.00 1019.60 1019.61 1018.94 1018.64 1019.29 1020.09 1020.41 1021.01 1021.65 1022.14 1021.98 1022.14 1021.41 1021.18 1021.33 1021.34 1021.61 1022.11
1020.17 1020.31 1020.40 1020.46 1020.48 1020.53 1020.65 1020.82 1021.01 1021.16 1021.31 1021.39 1021.33 1021.34 1021.15 1020.76 1019.84 1021.27 1021.90 1021.85 1021.72 1021.27 1020.94 1020.54 1020.16 1019.53 1019.66 1020.06 1020.49 1020.17 1020.23 1020.99 1021.42 1022.00 1022.63 1022.73 1022.69 1022.61 1022.29 1021.41 1021.08 1021.32 1021.58 1021.93 1022.33
1020.24 1020.40 1020.52 1020.53 1020.57 1020.70 1020.85 1021.03 1021.20 1021.36 1021.52 1021.57 1021.53 1021.53 1021.32 1020.36 1020.90 1021.84 1022.20 1022.26 1022.01 1021.55 1020.96 1020.40 1020.14 1019.78 1019.99 1020.48 1021.21 1021.26 1021.93 1022.28 1022.64 1023.11 1023.45 1023.41 1023.08 1022.76 1022.18 1021.53 1021.44 1021.73 1021.92 1022.24 1022.29
1020.32 1020.47 1020.56 1020.61 1020.69 1020.79 1020.94 1021.15 1021.35 1021.51 1021.68 1021.75 1021.80 1021.71 1021.41 1020.35 1021.46 1022.25 1022.51 1022.37 1022.02 1021.81 1021.41 1020.89 1020.38 1020.14 1020.42 1021.24 1021.65 1021.83 1022.44 1022.87 1023.16 1023.59 1023.75 1023.75 1023.45 1023.12 1021.91 1021.58 1021.65 1021.80 1022.23 1022.14 1022.70
1020.41 1020.52 1020.60 1020.63 1020.72 1020.84 1021.04 1021.26 1021.40 1021.61 1021.82 1021.91 1021.93 1021.87 1021.31 1020.95 1022.26 1022.29 1022.56 1022.44 1022.44 1022.08 1021.90 1021.36 1021.38 1020.99 1021.11 1021.61 1021.87 1022.55 1022.78 1022.78 1023.25 1023.48 1023.73 1023.66 1022.96 1022.92 1021.07 1021.16 1021.56 1021.90 1022.09 1022.59 1023.73
1020.57 1020.61 1020.65 1020.68 1020.74 1020.87 1021.11 1021.40 1021.52 1021.77 1021.95 1022.01 1022.05 1021.64 1020.94 1022.09 1022.26 1022.45 1022.73 1022.94 1022.95 1022.69 1022.32 1022.52 1022.35 1021.66 1021.81 1022.18 1022.76 1022.79 1022.67 1022.48 1022.88 1023.34 1023.42 1023.48 1021.86 1021.04 1020.97 1021.21 1021.53 1021.85 1022.12 1023.26 1024.15
1020.73 1020.70 1020.70 1020.70 1020.72 1020.85 1021.13 1021.43 1021.65 1021.91 1022.05 1022.17 1022.15 1021.41 1021.54 1022.76 1022.37 1022.65 1022.76 1023.04 1023.11 1023.07 1023.06 1023.13 1022.83 1022.57 1022.35 1022.84 1022.54 1022.23 1022.26 1021.76 1022.17 1022.98 1023.11 1023.50 1020.60 1019.89 1020.35 1020.83 1021.12 1021.51 1021.96 1023.14 1024.01
1020.88 1020.86 1020.82 1020.81 1020.81 1020.96 1021.20 1021.48 1021.74 1021.98 1022.14 1022.25 1021.97 1021.44 1021.91 1023.11 1022.78 1022.83 1022.79 1022.91 1023.31 1023.40 1023.44 1023.38 1023.17 1022.85 1022.85 1022.16 1021.55 1021.47 1020.97 1020.97 1021.32 1022.46 1022.92 1022.97 1020.48 1019.33 1019.84 1019.89 1020.14 1020.91 1021.72 1023.21 1024.15
1020.95 1021.01 1020.99 1020.98 1021.03 1021.16 1021.36 1021.59 1021.89 1022.12 1022.11 1021.80 1021.70 1021.79 1022.82 1022.30 1022.78 1023.01 1023.19 1023.32 1023.36 1023.50 1023.45 1023.24 1023.00 1022.60 1022.33 1022.04 1021.32 1020.86 1020.84 1020.61 1021.00 1021.80 1022.33 1021.86 1019.89 1019.22 1018.80 1018.89 1019.45 1020.63 1021.73 1023.13 1024.10
1020.96 1021.06 1021.18 1021.19 1021.28 1021.43 1021.66 1021.93 1022.24 1022.12 1021.65 1020.76 1020.84 1021.19 1021.95 1022.73 1023.05 1023.13 1023.41 1023.54 1023.48 1023.34 1022.82 1023.29 1023.08 1022.09 1021.67 1021.95 1022.27 1022.19 1021.83 1021.35 1021.03 1021.53 1022.38 1020.84 1019.31 1018.16 1018.14 1018.24 1019.14 1020.45 1021.81 1022.87 1023.82
1021.03 1021.11 1021.27 1021.33 1021.39 1021.67 1021.28 1020.88 1021.24 1021.58 1021.03 1021.36 1021.47 1021.74 1022.07 1022.30 1022.81 1023.30 1023.67 1023.50 1023.31 1022.72 1023.18 1023.46 1022.65 1022.31 1022.45 1023.01 1023.21 1023.14 1022.80 1022.17 1021.62 1022.47 1022.72 1020.67 1018.75 1017.21 1017.06 1018.19 1019.11 1020.46 1021.68 1022.69 1023.64
1021.08 1021.04 1021.32 1021.60 1021.77 1021.98 1021.29 1021.34 1021.67 1021.41 1020.72 1021.23 1021.35 1021.43 1022.00 1022.55 1022.17 1022.68 1023.38 1023.12 1022.89 1022.68 1022.85 1022.97 1022.80 1023.17 1023.27 1023.74 1024.11 1023.82 1023.63 1023.45 1023.55 1023.08 1021.67 1021.11 1017.88 1016.46 1018.17 1019.05 1020.09 1020.87 1021.73 1022.71 1023.45
1021.09 1021.04 1021.33 1021.59 1022.34 1021.29 1021.36 1021.48 1021.69 1021.50 1020.72 1021.09 1021.46 1021.54 1022.06 1022.21 1022.47 1022.87 1023.09 1023.19 1023.00 1022.76 1022.77 1022.72 1023.51 1023.58 1023.86 1024.08 1024.66 1024.69 1024.48 1024.71 1024.60 1024.17 1022.45 1022.13 1019.20 1016.48 1017.02 1018.67 1019.80 1020.66 1021.62 1022.49 1023.27
1021.14 1021.18 1021.31 1021.27 1021.19 1021.29 1021.70 1021.78 1021.79 1021.63 1020.72 1020.53 1021.41 1022.12 1021.87 1021.92 1022.71 1023.40 1023.88 1023.49 1022.93 1022.73 1023.48 1022.76 1023.39 1023.80 1024.07 1024.18 1024.93 1025.42 1025.80 1025.73 1025.27 1024.55 1023.78 1021.69 1021.38 1016.65 1017.24 1017.90 1018.62 1019.71 1020.59 1021.72 1022.69
1021.13 1021.09 1021.44 1021.74 1021.09 1021.43 1021.72 1021.88 1021.81 1021.02 1019.46 1019.95 1020.95 1021.48 1021.71 1021.85 1022.38 1023.25 1023.43 1023.64 1023.59 1023.10 1022.97 1022.93 1024.00 1024.06 1023.99 1025.10 1025.58 1026.32 1026.57 1026.15 1025.65 1024.63 1023.59 1021.12 1021.28 1016.98 1016.53 1016.98 1017.41 1018.67 1019.94 1021.17 1022.45
1021.08 1021.12 1021.33 1021.01 1020.76 1021.49 1021.65 1021.46 1020.72 1019.16 1018.26 1019.15 1019.72 1020.43 1020.63 1020.93 1021.60 1022.18 1022.65 1022.84 1022.58 1022.81 1022.17 1022.80 1023.39 1024.34 1024.93 1025.59 1026.51 1026.98 1026.67 1025.44 1024.70 1023.99 1021.64 1021.48 1021.48 1017.24 1016.83 1017.55 1017.99 1018.94 1019.81 1021.03 1022.38
1020.84 1021.12 1021.40 1021.32 1021.39 1021.57 1021.48 1020.58 1018.90 1016.39 1016.64 1017.86 1018.59 1019.53 1019.61 1019.78 1020.41 1021.21 1021.42 1021.59 1021.65 1021.85 1021.91 1021.72 1022.87 1024.20 1025.03 1025.43 1025.76 1026.82 1026.50 1025.09 1023.70 1022.28 1020.87 1021.50 1019.27 1016.27 1016.81 1017.80 1018.59 1019.57 1020.26 1021.01 1022.08
1021.11 1020.82 1020.88 1021.42 1021.55 1021.51 1020.76 1019.17 1016.21 1015.36 1015.89 1016.98 1018.33 1018.27 1018.47 1019.03 1019.57 1020.26 1020.31 1020.05 1019.98 1020.81 1021.48 1021.38 1022.69 1024.72 1025.77 1026.49 1026.84 1027.55 1027.03 1025.89 1024.45 1023.50 1021.86 1018.65 1017.15 1016.30 1015.74 1017.38 1018.61 1019.62 1020.53 1020.89 1021.52
1020.58 1020.46 1020.59 1021.48 1021.58 1021.28 1020.18 1017.80 1015.95 1015.72 1016.11 1016.42 1016.12 1016.21 1016.49 1017.75 1018.95 1019.35 1018.84 1018.88 1019.63 1020.30 1021.26 1021.17 1022.58 1024.21 1026.23 1026.92 1027.52 1027.28 1026.72 1026.17 1025.23 1023.04 1020.09 1016.75 1015.94 1014.63 1015.16 1016.22 1017.52 1018.75 1019.43 1020.28 1021.09
1020.62 1020.19 1021.24 1021.46 1021.45 1020.79 1019.08 1017.34 1016.23 1015.96 1016.16 1016.23 1015.61 1015.49 1015.72 1016.42 1017.41 1017.89 1017.49 1018.31 1018.84 1020.52 1021.45 1021.84 1022.43 1024.49 1025.92 1025.84 1025.57 1027.24 1026.53 1025.93 1025.03 1022.69 1020.45 1017.40 1013.69 1012.98 1013.66 1014.84 1016.07 1017.15 1018.24 1019.17 1020.12
1020.19 1020.24 1021.59 1021.42 1020.77 1019.22 1017.88 1017.17 1016.75 1016.29 1016.68 1016.52 1016.50 1015.73 1015.82 1016.23 1016.80 1017.03 1016.98 1017.30 1018.74 1020.30 1021.15 1021.72 1022.04 1022.45 1023.44 1024.70 1025.35 1025.01 1024.43 1024.30 1023.56 1022.04 1020.93 1019.58 1013.13 1013.07 1013.39 1014.34 1015.41 1016.46 1017.47 1018.45 1019.30
1019.68 1020.14 1021.77 1021.58 1019.37 1017.80 1017.20 1017.08 1016.71 1016.45 1016.55 1016.50 1016.24 1016.11 1016.04 1016.44 1017.03 1016.52 1017.18 1018.51 1019.25 1020.13 1020.43 1021.46 1021.83 1021.89 1022.61 1024.63 1025.05 1024.67 1023.67 1023.17 1022.81 1022.22 1019.95 1018.60 1012.32 1012.50 1013.47 1014.33 1015.27 1016.16 1016.73 1017.64 1018.55
1019.71 1020.00 1021.09 1020.96 1018.82 1018.17 1017.03 1016.49 1016.37 1016.17 1016.31 1016.40 1016.32 1016.80 1017.19 1017.06 1016.97 1017.21 1017.68 1019.19 1019.87 1020.43 1020.88 1021.26 1021.21 1020.13 1019.13 1019.53 1021.14 1022.72 1021.96 1022.15 1022.23 1021.00 1018.27 1014.92 1013.17 1011.77 1012.96 1013.38 1014.42 1015.14 1015.76 1016.63 1017.56
1019.04 1018.20 1017.86 1018.79 1018.14 1017.63 1017.19 1016.28 1015.97 1016.03 1016.45 1016.67 1016.64 1016.53 1016.85 1017.33 1017.33 1017.49 1018.22 1019.59 1020.50 1020.80 1021.38 1021.73 1020.56 1019.97 1018.82 1019.16 1019.97 1020.21 1020.32 1020.92 1020.73 1018.24 1018.45 1012.65 1014.44 1010.42 1011.24 1012.06 1012.76 1013.44 1014.32 1015.52 1016.60
1018.04 1017.74 1017.78 1017.25 1016.77 1016.77 1016.74 1015.95 1015.22 1015.23 1015.79 1015.75 1015.82 1015.52 1016.44 1016.57 1015.95 1016.38 1017.48 1018.56 1018.74 1020.46 1021.22 1021.32 1019.96 1019.50 1018.33 1018.81 1019.03 1018.56 1018.14 1018.53 1018.39 1017.98 1017.10 1015.73 1012.40 1010.50 1010.84 1011.57 1011.94 1012.50 1013.25 1014.01 1015.08
1016.53 1016.73 1016.76 1016.27 1016.19 1015.98 1014.91 1014.17 1013.94 1014.54 1014.65 1014.05 1014.12 1014.85 1015.36 1014.48 1015.24 1015.12 1015.86 1016.80 1017.50 1018.46 1019.81 1020.17 1020.02 1019.52 1017.71 1018.01 1018.74 1017.34 1015.10 1015.02 1015.23 1015.30 1015.69 1015.37 1010.97 1009.92 1010.97 1011.31 1011.20 1012.05 1012.76 1013.28 1014.08
Wind_Speed
8 6 5 5 6 6 6 6 6 5 5 5 6 8 6 7 8 7 18 10 10 14 12 2 3 6 8 6 6 2 2 3 3 3 3 4 4 1 5 11 10 9 11 14 13
5 4 3 4 4 5 6 6 6 6 6 5 7 8 9 9 15 19 9 11 12 14 8 7 5 4 5 4 4 4 2 3 3 3 1 3 6 9 7 9 10 10 7 6 9
4 3 3 4 4 5 5 6 6 6 7 6 8 8 4 11 1 7 8 11 13 11 6 5 2 2 6 4 5 3 3 3 3 1 1 5 9 9 9 9 6 6 9 9 11
5 3 2 3 4 5 5 5 6 6 7 6 7 7 9 10 1 5 7 9 10 10 5 4 1 2 4 4 3 4 3 1 1 1 3 7 7 9 14 16 7 7 7 9 10
4 2 2 3 4 5 5 6 6 6 6 7 6 6 8 2 5 6 4 8 5 6 9 5 7 2 6 6 5 6 2 2 2 4 8 10 13 13 16 12 11 8 6 9 7
3 2 1 4 4 5 6 6 7 6 6 6 5 4 8 3 3 3 4 5 8 7 9 10 6 6 7 4 2 2 2 5 3 5 7 9 12 4 6 5 8 8 10 7 6
5 2 3 3 5 7 8 7 6 6 6 6 4 7 2 6 3 4 3 6 6 6 7 8 5 2 3 6 3 1 3 4 7 5 4 7 14 16 12 7 7 9 10 4 9
5 3 2 3 5 9 9 9 7 6 6 5 4 7 3 1 4 4 4 6 7 7 8 5 6 6 2 3 5 3 3 3 8 4 2 3 6 9 9 7 10 12 12 5 9
5 4 3 3 7 10 11 11 9 8 7 3 6 6 3 4 4 4 1 3 5 5 5 4 2 2 4 2 3 3 5 3 3 7 3 5 10 5 9 13 15 11 10 6 7
3 2 3 5 9 11 14 13 12 11 5 3 1 4 5 4 6 5 4 4 2 4 3 1 1 1 1 1 2 4 5 2 7 6 9 15 26 22 17 14 15 9 7 7 6
3 3 4 7 9 11 15 8 6 5 6 2 0 4 8 7 7 5 3 4 4 4 2 3 3 4 2 3 3 5 7 12 13 3 8 13 21 24 18 15 12 9 9 7 6
4 3 5 9 11 10 5 4 5 5 3 4 2 4 6 5 4 8 5 5 4 4 2 4 6 3 6 5 1 3 8 11 9 2 7 15 27 27 16 6 9 10 9 8 6
5 5 7 9 10 5 6 1 1 3 5 5 6 4 4 8 2 11 10 3 6 6 6 8 3 6 4 4 3 6 9 9 8 13 16 14 17 8 4 5 6 8 8 7 8
5 7 10 12 5 4 5 7 3 2 5 8 5 4 6 4 5 3 7 3 4 3 3 8 5 5 4 4 6 4 4 3 7 9 6 10 10 11 9 10 12 12 12 12 10
5 6 13 13 4 4 4 5 4 3 5 8 6 4 6 6 9 5 1 4 5 3 3 2 5 8 6 5 9 2 2 3 6 9 11 4 6 7 4 9 15 15 15 13 10
4 6 12 3 3 4 6 6 4 5 7 7 6 8 9 8 5 6 5 2 2 3 9 12 2 4 3 6 5 7 1 3 3 2 5 6 5 7 5 4 7 13 14 12 11
4 12 9 1 1 8 8 5 5 7 4 7 6 8 12 10 11 9 9 8 7 5 9 6 10 4 7 5 5 3 3 3 4 4 5 6 6 12 4 5 6 10 11 12 9
3 13 2 2 5 9 5 5 8 4 5 4 4 9 9 13 6 9 7 7 16 8 3 6 7 11 10 4 4 9 3 4 7 7 7 6 11 7 1 2 7 5 4 9 13
8 4 4 3 6 5 6 7 6 4 7 12 8 9 10 8 3 10 11 6 5 19 12 8 5 7 2 3 2 8 7 3 4 2 6 8 7 14 12 12 9 11 13 14 14
4 5 4 6 6 5 6 8 8 1 6 7 9 13 9 11 10 11 10 6 6 14 2 3 4 7 5 4 2 3 5 4 4 6 9 9 12 13 4 7 11 14 16 15 13
4 5 5 7 5 6 8 9 6 5 8 9 8 7 9 7 13 9 6 7 10 11 9 4 3 9 7 13 12 7 6 5 3 5 6 9 8 5 7 7 11 12 14 13 14
3 5 4 7 8 6 10 6 2 6 7 6 5 7 9 9 9 12 11 9 13 13 12 9 4 8 11 4 2 10 9 13 7 9 6 5 15 6 9 7 7 7 7 10 11
3 3 4 5 8 13 9 6 7 8 8 8 9 9 6 7 5 13 6 5 13 12 12 11 7 4 6 3 3 8 11 14 6 0 15 10 12 5 5 6 8 10 8 8 10
4 5 4 6 9 7 11 13 12 8 6 6 3 4 4 6 10 3 7 4 9 9 4 9 7 10 16 4 7 8 13 21 16 10 11 27 29 27 14 16 12 14 14 11 11
3 6 6 8 12 17 9 5 11 8 7 8 5 13 8 6 5 10 10 4 6 9 7 9 10 16 21 19 13 13 12 20 27 27 17 32 22 33 22 18 9 8 12 13 13
4 4 3 4 9 15 18 12 20 12 10 8 12 12 13 13 14 6 8 10 9 13 11 8 7 6 18 16 18 23 20 22 28 26 28 29 40 32 28 22 21 17 15 13 14
5 3 4 7 8 9 10 17 13 10 14 22 16 13 15 26 18 18 14 8 7 15 16 11 8 6 12 5 1 16 25 28 27 20 25 25 38 30 22 20 17 11 10 11 14
Wind_Direction
83 109 125 148 154 154 155 152 151 155 139 146 162 146 145 198 219 73 52 41 22 355 310 328 66 53 58 67 41 301 92 138 155 185 117 144 260 242 288 283 285 285 285 298 332
91 123 139 152 155 167 163 158 163 160 170 170 177 168 228 247 84 61 48 31 17 1 26 22 52 53 64 52 24 340 134 99 34 48 224 199 269 297 285 273 260 255 268 330 326
105 126 155 164 166 167 165 168 171 174 184 189 187 195 260 301 193 52 23 27 16 359 17 22 33 47 79 60 13 29 71 95 124 75 328 279 274 259 266 270 251 301 309 320 324
93 126 125 163 169 170 172 176 181 186 193 194 190 193 272 277 330 63 37 19 13 0 19 354 255 148 95 88 57 103 94 84 84 181 251 259 297 265 251 256 286 298 310 313 322
92 114 121 162 171 186 182 185 189 193 196 200 197 221 267 143 88 96 24 12 17 13 24 15 45 58 120 111 119 101 167 225 254 272 266 269 259 270 269 257 254 256 267 293 341
61 73 139 167 176 188 188 192 189 186 198 203 195 263 257 221 90 88 35 31 23 24 35 44 56 60 89 87 60 69 260 277 279 257 263 261 269 271 260 215 225 240 274 342 329
63 58 140 170 182 176 182 186 181 173 196 192 208 257 266 87 103 94 80 49 25 20 66 42 16 310 126 128 123 105 280 198 226 226 273 311 254 227 241 193 245 262 281 282 295
40 61 101 139 167 171 167 170 169 166 180 171 268 259 65 98 111 129 126 73 62 64 74 50 43 75 48 123 175 218 216 279 144 197 174 319 284 196 187 224 264 275 284 294 287
50 57 93 123 141 153 159 160 153 159 145 187 237 275 129 135 186 110 47 98 85 81 77 67 14 60 171 264 215 197 297 279 248 183 283 225 278 252 197 253 265 281 271 266 276
68 58 128 137 123 132 137 144 130 136 183 205 274 237 158 195 137 127 95 123 99 131 152 271 210 157 184 203 313 314 303 279 276 171 241 273 266 269 270 273 274 260 247 237 246
23 136 168 158 148 140 128 131 161 169 221 255 8 61 133 106 140 168 138 159 151 238 289 51 270 239 351 224 350 321 294 287 292 9 296 265 279 283 283 275 256 229 218 225 231
8 175 180 169 158 161 211 262 18 7 196 185 118 98 128 173 142 165 179 215 215 237 119 225 235 70 101 118 205 271 292 288 297 35 284 292 292 286 283 232 216 203 204 213 221
1 166 172 172 139 190 235 142 97 298 258 149 200 184 168 189 241 175 191 205 230 237 229 255 44 131 134 157 192 250 260 296 292 317 268 310 274 195 138 178 192 205 207 207 222
25 153 160 142 181 169 223 148 158 300 265 143 189 164 153 194 206 121 202 264 206 277 258 262 100 195 202 220 198 276 19 275 285 320 306 26 292 274 181 193 209 206 207 211 205
23 166 164 184 90 202 82 143 159 230 281 125 143 107 155 200 127 151 174 180 243 179 164 91 177 191 214 223 167 3 20 308 302 286 318 191 244 263 139 230 217 211 207 204 202
14 173 155 210 225 101 137 139 195 221 251 157 135 168 159 192 159 133 176 206 0 250 227 264 36 249 266 108 187 109 304 258 267 273 243 176 233 263 219 207 198 194 202 199 198
341 165 193 261 41 148 154 177 226 239 123 162 180 176 198 178 188 195 177 184 195 185 200 181 210 134 158 154 154 157 251 268 220 205 280 152 215 260 246 202 209 191 196 195 184
53 153 157 18 145 155 190 211 231 286 182 99 139 172 196 163 207 194 201 236 219 221 272 242 216 180 185 209 205 188 258 263 279 291 311 147 240 250 147 28 207 217 224 196 200
153 174 177 133 158 192 216 218 229 227 114 153 151 198 198 200 228 193 219 241 196 186 196 195 177 105 111 130 273 146 205 41 295 194 275 238 242 273 235 213 205 217 219 220 213
198 190 149 152 167 206 225 247 248 160 138 172 220 190 199 181 191 197 192 169 208 196 92 149 206 191 128 155 124 248 121 135 197 259 260 237 255 252 212 220 212 214 219 217 214
218 221 109 164 192 203 227 233 263 195 189 205 246 231 223 180 205 193 232 163 183 177 190 153 225 131 153 205 178 166 207 210 296 251 256 293 257 163 207 217 203 213 220 212 207
236 228 136 192 193 201 223 206 277 201 205 241 278 252 219 208 212 224 224 222 143 148 172 196 217 219 214 113 9 241 226 184 214 190 235 290 268 200 195 201 210 220 204 212 210
208 130 161 232 224 219 214 252 237 200 204 197 220 224 218 214 217 223 221 59 155 172 164 169 196 218 196 181 189 222 208 220 259 334 236 242 259 120 111 213 225 240 229 202 202
166 174 157 216 263 273 230 238 232 207 236 207 209 137 166 217 236 285 206 149 189 205 168 160 202 230 254 326 114 204 209 203 198 226 244 233 267 264 254 253 221 226 230 222 208
207 221 184 186 227 222 207 252 235 223 218 199 216 215 175 206 221 232 218 171 196 215 189 174 242 227 256 275 269 252 225 199 210 223 222 265 249 266 269 264 270 247 237 227 218
184 185 191 288 219 207 213 213 233 221 174 215 226 198 191 219 208 211 195 202 211 186 187 198 251 245 269 246 245 256 250 230 219 228 241 256 269 264 271 285 276 265 257 241 228
177 187 158 189 191 190 200 218 230 215 238 241 226 231 200 228 231 240 232 207 203 172 189 186 210 188 257 93 164 267 239 234 232 222 219 237 244 271 274 264 265 256 236 239 224